timestamp,waterbody_station,lease,latitude,longitude,deployment_start_date,deployment_end_date,sensor,depth,mooring,Temperature_degrees Celsius,Salinity_practical salinity units,Dissolved Oxygen_percent saturation
2022-07-25T00:02:00,St. Mary's Bay-Centreville,,44.536239,-66.00172,2022-06-07,2022-08-22,aquaMeasure-670375,3.5,float,17.73,,
2022-07-25T00:12:00,St. Mary's Bay-Centreville,,44.536239,-66.00172,2022-06-07,2022-08-22,aquaMeasure-670375,3.5,float,17.55,,
2022-07-25T00:22:00,St. Mary's Bay-Centreville,,44.536239,-66.00172,2022-06-07,2022-08-22,aquaMeasure-670375,3.5,float,17.62,,
2022-07-25T00:32:00,St. Mary's Bay-Centreville,,44.536239,-66.00172,2022-06-07,2022-08-22,aquaMeasure-670375,3.5,float,17.55,,
2022-07-25T00:42:00,St. Mary's Bay-Centreville,,44.536239,-66.00172,2022-06-07,2022-08-22,aquaMeasure-670375,3.5,float,17.4,,
2022-07-25T00:52:00,St. Mary's Bay-Centreville,,44.536239,-66.00172,2022-06-07,2022-08-22,aquaMeasure-670375,3.5,float,17.44,,
2022-07-25T01:02:00,St. Mary's Bay-Centreville,,44.536239,-66.00172,2022-06-07,2022-08-22,aquaMeasure-670375,3.5,float,17.35,,
2022-07-25T01:12:00,St. Mary's Bay-Centreville,,44.536239,-66.00172,2022-06-07,2022-08-22,aquaMeasure-670375,3.5,float,17.44,,
2022-07-25T01:22:00,St. Mary's Bay-Centreville,,44.536239,-66.00172,2022-06-07,2022-08-22,aquaMeasure-670375,3.5,float,17.46,,
2022-07-25T01:32:00,St. Mary's Bay-Centreville,,44.536239,-66.00172,2022-06-07,2022-08-22,aquaMeasure-670375,3.5,float,17.55,,
2022-07-25T01:42:00,St. Mary's Bay-Centreville,,44.536239,-66.00172,2022-06-07,2022-08-22,aquaMeasure-670375,3.5,float,17.59,,
2022-07-25T01:52:00,St. Mary's Bay-Centreville,,44.536239,-66.00172,2022-06-07,2022-08-22,aquaMeasure-670375,3.5,float,17.59,,
2022-07-25T02:02:00,St. Mary's Bay-Centreville,,44.536239,-66.00172,2022-06-07,2022-08-22,aquaMeasure-670375,3.5,float,17.66,,
2022-07-25T02:12:00,St. Mary's Bay-Centreville,,44.536239,-66.00172,2022-06-07,2022-08-22,aquaMeasure-670375,3.5,float,17.68,,
2022-07-25T02:22:00,St. Mary's Bay-Centreville,,44.536239,-66.00172,2022-06-07,2022-08-22,aquaMeasure-670375,3.5,float,17.73,,
2022-07-25T02:32:00,St. Mary's Bay-Centreville,,44.536239,-66.00172,2022-06-07,2022-08-22,aquaMeasure-670375,3.5,float,17.7,,
2022-07-25T02:42:00,St. Mary's Bay-Centreville,,44.536239,-66.00172,2022-06-07,2022-08-22,aquaMeasure-670375,3.5,float,17.73,,
2022-07-25T02:52:00,St. Mary's Bay-Centreville,,44.536239,-66.00172,2022-06-07,2022-08-22,aquaMeasure-670375,3.5,float,17.75,,
2022-07-25T03:02:00,St. Mary's Bay-Centreville,,44.536239,-66.00172,2022-06-07,2022-08-22,aquaMeasure-670375,3.5,float,17.77,,
2022-07-25T03:12:00,St. Mary's Bay-Centreville,,44.536239,-66.00172,2022-06-07,2022-08-22,aquaMeasure-670375,3.5,float,17.79,,
2022-07-25T03:22:00,St. Mary's Bay-Centreville,,44.536239,-66.00172,2022-06-07,2022-08-22,aquaMeasure-670375,3.5,float,17.81,,
2022-07-25T03:32:00,St. Mary's Bay-Centreville,,44.536239,-66.00172,2022-06-07,2022-08-22,aquaMeasure-670375,3.5,float,17.93,,
2022-07-25T03:42:00,St. Mary's Bay-Centreville,,44.536239,-66.00172,2022-06-07,2022-08-22,aquaMeasure-670375,3.5,float,18.17,,
2022-07-25T03:52:00,St. Mary's Bay-Centreville,,44.536239,-66.00172,2022-06-07,2022-08-22,aquaMeasure-670375,3.5,float,18.3,,
2022-07-25T04:02:00,St. Mary's Bay-Centreville,,44.536239,-66.00172,2022-06-07,2022-08-22,aquaMeasure-670375,3.5,float,18.41,,
2022-07-25T04:12:00,St. Mary's Bay-Centreville,,44.536239,-66.00172,2022-06-07,2022-08-22,aquaMeasure-670375,3.5,float,18.55,,
2022-07-25T04:22:00,St. Mary's Bay-Centreville,,44.536239,-66.00172,2022-06-07,2022-08-22,aquaMeasure-670375,3.5,float,18.73,,
2022-07-25T04:31:00,St. Mary's Bay-Centreville,,44.536239,-66.00172,2022-06-07,2022-08-22,aquaMeasure-670375,3.5,float,18.88,,
2022-07-25T04:41:00,St. Mary's Bay-Centreville,,44.536239,-66.00172,2022-06-07,2022-08-22,aquaMeasure-670375,3.5,float,18.95,,
2022-07-25T04:51:00,St. Mary's Bay-Centreville,,44.536239,-66.00172,2022-06-07,2022-08-22,aquaMeasure-670375,3.5,float,18.97,,
2022-07-25T05:01:00,St. Mary's Bay-Centreville,,44.536239,-66.00172,2022-06-07,2022-08-22,aquaMeasure-670375,3.5,float,19.0,,
2022-07-25T05:11:00,St. Mary's Bay-Centreville,,44.536239,-66.00172,2022-06-07,2022-08-22,aquaMeasure-670375,3.5,float,19.02,,
2022-07-25T05:21:00,St. Mary's Bay-Centreville,,44.536239,-66.00172,2022-06-07,2022-08-22,aquaMeasure-670375,3.5,float,19.04,,
2022-07-25T05:31:00,St. Mary's Bay-Centreville,,44.536239,-66.00172,2022-06-07,2022-08-22,aquaMeasure-670375,3.5,float,19.09,,
2022-07-25T05:41:00,St. Mary's Bay-Centreville,,44.536239,-66.00172,2022-06-07,2022-08-22,aquaMeasure-670375,3.5,float,19.11,,
2022-07-25T05:51:00,St. Mary's Bay-Centreville,,44.536239,-66.00172,2022-06-07,2022-08-22,aquaMeasure-670375,3.5,float,19.13,,
2022-07-25T06:01:00,St. Mary's Bay-Centreville,,44.536239,-66.00172,2022-06-07,2022-08-22,aquaMeasure-670375,3.5,float,19.13,,
2022-07-25T06:11:00,St. Mary's Bay-Centreville,,44.536239,-66.00172,2022-06-07,2022-08-22,aquaMeasure-670375,3.5,float,19.11,,
2022-07-25T06:21:00,St. Mary's Bay-Centreville,,44.536239,-66.00172,2022-06-07,2022-08-22,aquaMeasure-670375,3.5,float,19.11,,
2022-07-25T06:31:00,St. Mary's Bay-Centreville,,44.536239,-66.00172,2022-06-07,2022-08-22,aquaMeasure-670375,3.5,float,19.11,,
2022-07-25T06:41:00,St. Mary's Bay-Centreville,,44.536239,-66.00172,2022-06-07,2022-08-22,aquaMeasure-670375,3.5,float,19.13,,
2022-07-25T06:51:00,St. Mary's Bay-Centreville,,44.536239,-66.00172,2022-06-07,2022-08-22,aquaMeasure-670375,3.5,float,19.11,,
2022-07-25T07:01:00,St. Mary's Bay-Centreville,,44.536239,-66.00172,2022-06-07,2022-08-22,aquaMeasure-670375,3.5,float,19.09,,
2022-07-25T07:11:00,St. Mary's Bay-Centreville,,44.536239,-66.00172,2022-06-07,2022-08-22,aquaMeasure-670375,3.5,float,19.09,,
2022-07-25T07:21:00,St. Mary's Bay-Centreville,,44.536239,-66.00172,2022-06-07,2022-08-22,aquaMeasure-670375,3.5,float,19.09,,
2022-07-25T07:31:00,St. Mary's Bay-Centreville,,44.536239,-66.00172,2022-06-07,2022-08-22,aquaMeasure-670375,3.5,float,19.04,,
2022-07-25T07:41:00,St. Mary's Bay-Centreville,,44.536239,-66.00172,2022-06-07,2022-08-22,aquaMeasure-670375,3.5,float,19.02,,
2022-07-25T07:51:00,St. Mary's Bay-Centreville,,44.536239,-66.00172,2022-06-07,2022-08-22,aquaMeasure-670375,3.5,float,18.97,,
2022-07-25T08:01:00,St. Mary's Bay-Centreville,,44.536239,-66.00172,2022-06-07,2022-08-22,aquaMeasure-670375,3.5,float,18.93,,
2022-07-25T08:11:00,St. Mary's Bay-Centreville,,44.536239,-66.00172,2022-06-07,2022-08-22,aquaMeasure-670375,3.5,float,18.86,,
2022-07-25T08:21:00,St. Mary's Bay-Centreville,,44.536239,-66.00172,2022-06-07,2022-08-22,aquaMeasure-670375,3.5,float,18.77,,
2022-07-25T08:31:00,St. Mary's Bay-Centreville,,44.536239,-66.00172,2022-06-07,2022-08-22,aquaMeasure-670375,3.5,float,18.66,,
2022-07-25T08:41:00,St. Mary's Bay-Centreville,,44.536239,-66.00172,2022-06-07,2022-08-22,aquaMeasure-670375,3.5,float,18.55,,
2022-07-25T08:51:00,St. Mary's Bay-Centreville,,44.536239,-66.00172,2022-06-07,2022-08-22,aquaMeasure-670375,3.5,float,18.48,,
2022-07-25T09:01:00,St. Mary's Bay-Centreville,,44.536239,-66.00172,2022-06-07,2022-08-22,aquaMeasure-670375,3.5,float,18.41,,
2022-07-25T09:11:00,St. Mary's Bay-Centreville,,44.536239,-66.00172,2022-06-07,2022-08-22,aquaMeasure-670375,3.5,float,18.37,,
2022-07-25T09:21:00,St. Mary's Bay-Centreville,,44.536239,-66.00172,2022-06-07,2022-08-22,aquaMeasure-670375,3.5,float,18.26,,
2022-07-25T09:31:00,St. Mary's Bay-Centreville,,44.536239,-66.00172,2022-06-07,2022-08-22,aquaMeasure-670375,3.5,float,18.28,,
2022-07-25T09:41:00,St. Mary's Bay-Centreville,,44.536239,-66.00172,2022-06-07,2022-08-22,aquaMeasure-670375,3.5,float,18.24,,
2022-07-25T09:51:00,St. Mary's Bay-Centreville,,44.536239,-66.00172,2022-06-07,2022-08-22,aquaMeasure-670375,3.5,float,18.17,,
2022-07-25T10:01:00,St. Mary's Bay-Centreville,,44.536239,-66.00172,2022-06-07,2022-08-22,aquaMeasure-670375,3.5,float,18.1,,
2022-07-25T10:11:00,St. Mary's Bay-Centreville,,44.536239,-66.00172,2022-06-07,2022-08-22,aquaMeasure-670375,3.5,float,18.08,,
2022-07-25T10:21:00,St. Mary's Bay-Centreville,,44.536239,-66.00172,2022-06-07,2022-08-22,aquaMeasure-670375,3.5,float,18.01,,
2022-07-25T10:31:00,St. Mary's Bay-Centreville,,44.536239,-66.00172,2022-06-07,2022-08-22,aquaMeasure-670375,3.5,float,17.95,,
2022-07-25T10:41:00,St. Mary's Bay-Centreville,,44.536239,-66.00172,2022-06-07,2022-08-22,aquaMeasure-670375,3.5,float,17.95,,
2022-07-25T10:51:00,St. Mary's Bay-Centreville,,44.536239,-66.00172,2022-06-07,2022-08-22,aquaMeasure-670375,3.5,float,17.97,,
2022-07-25T11:01:00,St. Mary's Bay-Centreville,,44.536239,-66.00172,2022-06-07,2022-08-22,aquaMeasure-670375,3.5,float,17.93,,
2022-07-25T11:11:00,St. Mary's Bay-Centreville,,44.536239,-66.00172,2022-06-07,2022-08-22,aquaMeasure-670375,3.5,float,17.93,,
2022-07-25T11:21:00,St. Mary's Bay-Centreville,,44.536239,-66.00172,2022-06-07,2022-08-22,aquaMeasure-670375,3.5,float,17.93,,
2022-07-25T11:31:00,St. Mary's Bay-Centreville,,44.536239,-66.00172,2022-06-07,2022-08-22,aquaMeasure-670375,3.5,float,17.86,,
2022-07-25T11:41:00,St. Mary's Bay-Centreville,,44.536239,-66.00172,2022-06-07,2022-08-22,aquaMeasure-670375,3.5,float,17.86,,
2022-07-25T11:51:00,St. Mary's Bay-Centreville,,44.536239,-66.00172,2022-06-07,2022-08-22,aquaMeasure-670375,3.5,float,17.88,,
2022-07-25T12:01:00,St. Mary's Bay-Centreville,,44.536239,-66.00172,2022-06-07,2022-08-22,aquaMeasure-670375,3.5,float,17.9,,
2022-07-25T12:11:00,St. Mary's Bay-Centreville,,44.536239,-66.00172,2022-06-07,2022-08-22,aquaMeasure-670375,3.5,float,17.93,,
2022-07-25T12:21:00,St. Mary's Bay-Centreville,,44.536239,-66.00172,2022-06-07,2022-08-22,aquaMeasure-670375,3.5,float,17.81,,
2022-07-25T12:31:00,St. Mary's Bay-Centreville,,44.536239,-66.00172,2022-06-07,2022-08-22,aquaMeasure-670375,3.5,float,17.84,,
2022-07-25T12:41:00,St. Mary's Bay-Centreville,,44.536239,-66.00172,2022-06-07,2022-08-22,aquaMeasure-670375,3.5,float,17.77,,
2022-07-25T12:51:00,St. Mary's Bay-Centreville,,44.536239,-66.00172,2022-06-07,2022-08-22,aquaMeasure-670375,3.5,float,17.77,,
2022-07-25T13:01:00,St. Mary's Bay-Centreville,,44.536239,-66.00172,2022-06-07,2022-08-22,aquaMeasure-670375,3.5,float,17.75,,
2022-07-25T13:11:00,St. Mary's Bay-Centreville,,44.536239,-66.00172,2022-06-07,2022-08-22,aquaMeasure-670375,3.5,float,17.79,,
2022-07-25T13:21:00,St. Mary's Bay-Centreville,,44.536239,-66.00172,2022-06-07,2022-08-22,aquaMeasure-670375,3.5,float,17.77,,
2022-07-25T13:31:00,St. Mary's Bay-Centreville,,44.536239,-66.00172,2022-06-07,2022-08-22,aquaMeasure-670375,3.5,float,17.81,,
2022-07-25T13:41:00,St. Mary's Bay-Centreville,,44.536239,-66.00172,2022-06-07,2022-08-22,aquaMeasure-670375,3.5,float,17.86,,
2022-07-25T13:51:00,St. Mary's Bay-Centreville,,44.536239,-66.00172,2022-06-07,2022-08-22,aquaMeasure-670375,3.5,float,17.97,,
2022-07-25T14:01:00,St. Mary's Bay-Centreville,,44.536239,-66.00172,2022-06-07,2022-08-22,aquaMeasure-670375,3.5,float,18.04,,
2022-07-25T14:11:00,St. Mary's Bay-Centreville,,44.536239,-66.00172,2022-06-07,2022-08-22,aquaMeasure-670375,3.5,float,18.17,,
2022-07-25T14:21:00,St. Mary's Bay-Centreville,,44.536239,-66.00172,2022-06-07,2022-08-22,aquaMeasure-670375,3.5,float,18.28,,
2022-07-25T14:31:00,St. Mary's Bay-Centreville,,44.536239,-66.00172,2022-06-07,2022-08-22,aquaMeasure-670375,3.5,float,18.32,,
2022-07-25T14:41:00,St. Mary's Bay-Centreville,,44.536239,-66.00172,2022-06-07,2022-08-22,aquaMeasure-670375,3.5,float,18.39,,
2022-07-25T14:51:00,St. Mary's Bay-Centreville,,44.536239,-66.00172,2022-06-07,2022-08-22,aquaMeasure-670375,3.5,float,18.5,,
2022-07-25T15:01:00,St. Mary's Bay-Centreville,,44.536239,-66.00172,2022-06-07,2022-08-22,aquaMeasure-670375,3.5,float,18.7,,
2022-07-25T15:11:00,St. Mary's Bay-Centreville,,44.536239,-66.00172,2022-06-07,2022-08-22,aquaMeasure-670375,3.5,float,18.77,,
2022-07-25T15:21:00,St. Mary's Bay-Centreville,,44.536239,-66.00172,2022-06-07,2022-08-22,aquaMeasure-670375,3.5,float,18.84,,
2022-07-25T15:31:00,St. Mary's Bay-Centreville,,44.536239,-66.00172,2022-06-07,2022-08-22,aquaMeasure-670375,3.5,float,18.86,,
2022-07-25T15:41:00,St. Mary's Bay-Centreville,,44.536239,-66.00172,2022-06-07,2022-08-22,aquaMeasure-670375,3.5,float,18.91,,
2022-07-25T15:51:00,St. Mary's Bay-Centreville,,44.536239,-66.00172,2022-06-07,2022-08-22,aquaMeasure-670375,3.5,float,19.02,,
2022-07-25T16:01:00,St. Mary's Bay-Centreville,,44.536239,-66.00172,2022-06-07,2022-08-22,aquaMeasure-670375,3.5,float,19.06,,
2022-07-25T16:11:00,St. Mary's Bay-Centreville,,44.536239,-66.00172,2022-06-07,2022-08-22,aquaMeasure-670375,3.5,float,19.11,,
2022-07-25T16:21:00,St. Mary's Bay-Centreville,,44.536239,-66.00172,2022-06-07,2022-08-22,aquaMeasure-670375,3.5,float,19.11,,
2022-07-25T16:31:00,St. Mary's Bay-Centreville,,44.536239,-66.00172,2022-06-07,2022-08-22,aquaMeasure-670375,3.5,float,19.11,,
2022-07-25T16:41:00,St. Mary's Bay-Centreville,,44.536239,-66.00172,2022-06-07,2022-08-22,aquaMeasure-670375,3.5,float,19.13,,
2022-07-25T16:51:00,St. Mary's Bay-Centreville,,44.536239,-66.00172,2022-06-07,2022-08-22,aquaMeasure-670375,3.5,float,19.18,,
2022-07-25T17:01:00,St. Mary's Bay-Centreville,,44.536239,-66.00172,2022-06-07,2022-08-22,aquaMeasure-670375,3.5,float,19.13,,
2022-07-25T17:11:00,St. Mary's Bay-Centreville,,44.536239,-66.00172,2022-06-07,2022-08-22,aquaMeasure-670375,3.5,float,19.22,,
2022-07-25T17:21:00,St. Mary's Bay-Centreville,,44.536239,-66.00172,2022-06-07,2022-08-22,aquaMeasure-670375,3.5,float,19.27,,
2022-07-25T17:31:00,St. Mary's Bay-Centreville,,44.536239,-66.00172,2022-06-07,2022-08-22,aquaMeasure-670375,3.5,float,19.33,,
2022-07-25T17:41:00,St. Mary's Bay-Centreville,,44.536239,-66.00172,2022-06-07,2022-08-22,aquaMeasure-670375,3.5,float,19.36,,
2022-07-25T17:51:00,St. Mary's Bay-Centreville,,44.536239,-66.00172,2022-06-07,2022-08-22,aquaMeasure-670375,3.5,float,19.4,,
2022-07-25T18:01:00,St. Mary's Bay-Centreville,,44.536239,-66.00172,2022-06-07,2022-08-22,aquaMeasure-670375,3.5,float,19.42,,
2022-07-25T18:11:00,St. Mary's Bay-Centreville,,44.536239,-66.00172,2022-06-07,2022-08-22,aquaMeasure-670375,3.5,float,19.45,,
2022-07-25T18:21:00,St. Mary's Bay-Centreville,,44.536239,-66.00172,2022-06-07,2022-08-22,aquaMeasure-670375,3.5,float,19.47,,
2022-07-25T18:31:00,St. Mary's Bay-Centreville,,44.536239,-66.00172,2022-06-07,2022-08-22,aquaMeasure-670375,3.5,float,19.49,,
2022-07-25T18:41:00,St. Mary's Bay-Centreville,,44.536239,-66.00172,2022-06-07,2022-08-22,aquaMeasure-670375,3.5,float,19.61,,
2022-07-25T18:51:00,St. Mary's Bay-Centreville,,44.536239,-66.00172,2022-06-07,2022-08-22,aquaMeasure-670375,3.5,float,19.63,,
2022-07-25T19:01:00,St. Mary's Bay-Centreville,,44.536239,-66.00172,2022-06-07,2022-08-22,aquaMeasure-670375,3.5,float,19.61,,
2022-07-25T19:11:00,St. Mary's Bay-Centreville,,44.536239,-66.00172,2022-06-07,2022-08-22,aquaMeasure-670375,3.5,float,19.61,,
2022-07-25T19:21:00,St. Mary's Bay-Centreville,,44.536239,-66.00172,2022-06-07,2022-08-22,aquaMeasure-670375,3.5,float,19.58,,
2022-07-25T19:31:00,St. Mary's Bay-Centreville,,44.536239,-66.00172,2022-06-07,2022-08-22,aquaMeasure-670375,3.5,float,19.58,,
2022-07-25T19:41:00,St. Mary's Bay-Centreville,,44.536239,-66.00172,2022-06-07,2022-08-22,aquaMeasure-670375,3.5,float,19.58,,
2022-07-25T19:51:00,St. Mary's Bay-Centreville,,44.536239,-66.00172,2022-06-07,2022-08-22,aquaMeasure-670375,3.5,float,19.58,,
2022-07-25T20:01:00,St. Mary's Bay-Centreville,,44.536239,-66.00172,2022-06-07,2022-08-22,aquaMeasure-670375,3.5,float,19.56,,
2022-07-25T20:11:00,St. Mary's Bay-Centreville,,44.536239,-66.00172,2022-06-07,2022-08-22,aquaMeasure-670375,3.5,float,19.58,,
2022-07-25T20:21:00,St. Mary's Bay-Centreville,,44.536239,-66.00172,2022-06-07,2022-08-22,aquaMeasure-670375,3.5,float,19.56,,
2022-07-25T20:31:00,St. Mary's Bay-Centreville,,44.536239,-66.00172,2022-06-07,2022-08-22,aquaMeasure-670375,3.5,float,19.51,,
2022-07-25T20:41:00,St. Mary's Bay-Centreville,,44.536239,-66.00172,2022-06-07,2022-08-22,aquaMeasure-670375,3.5,float,19.49,,
2022-07-25T20:51:00,St. Mary's Bay-Centreville,,44.536239,-66.00172,2022-06-07,2022-08-22,aquaMeasure-670375,3.5,float,19.38,,
2022-07-25T21:01:00,St. Mary's Bay-Centreville,,44.536239,-66.00172,2022-06-07,2022-08-22,aquaMeasure-670375,3.5,float,19.29,,
2022-07-25T21:11:00,St. Mary's Bay-Centreville,,44.536239,-66.00172,2022-06-07,2022-08-22,aquaMeasure-670375,3.5,float,19.24,,
2022-07-25T21:21:00,St. Mary's Bay-Centreville,,44.536239,-66.00172,2022-06-07,2022-08-22,aquaMeasure-670375,3.5,float,19.15,,
2022-07-25T21:31:00,St. Mary's Bay-Centreville,,44.536239,-66.00172,2022-06-07,2022-08-22,aquaMeasure-670375,3.5,float,19.06,,
2022-07-25T21:41:00,St. Mary's Bay-Centreville,,44.536239,-66.00172,2022-06-07,2022-08-22,aquaMeasure-670375,3.5,float,18.95,,
2022-07-25T21:51:00,St. Mary's Bay-Centreville,,44.536239,-66.00172,2022-06-07,2022-08-22,aquaMeasure-670375,3.5,float,18.84,,
2022-07-25T22:01:00,St. Mary's Bay-Centreville,,44.536239,-66.00172,2022-06-07,2022-08-22,aquaMeasure-670375,3.5,float,18.82,,
2022-07-25T22:11:00,St. Mary's Bay-Centreville,,44.536239,-66.00172,2022-06-07,2022-08-22,aquaMeasure-670375,3.5,float,18.79,,
2022-07-25T22:21:00,St. Mary's Bay-Centreville,,44.536239,-66.00172,2022-06-07,2022-08-22,aquaMeasure-670375,3.5,float,18.88,,
2022-07-25T22:31:00,St. Mary's Bay-Centreville,,44.536239,-66.00172,2022-06-07,2022-08-22,aquaMeasure-670375,3.5,float,18.86,,
2022-07-25T22:41:00,St. Mary's Bay-Centreville,,44.536239,-66.00172,2022-06-07,2022-08-22,aquaMeasure-670375,3.5,float,18.75,,
2022-07-25T22:51:00,St. Mary's Bay-Centreville,,44.536239,-66.00172,2022-06-07,2022-08-22,aquaMeasure-670375,3.5,float,18.75,,
2022-07-25T23:01:00,St. Mary's Bay-Centreville,,44.536239,-66.00172,2022-06-07,2022-08-22,aquaMeasure-670375,3.5,float,18.77,,
2022-07-25T23:11:00,St. Mary's Bay-Centreville,,44.536239,-66.00172,2022-06-07,2022-08-22,aquaMeasure-670375,3.5,float,18.75,,
2022-07-25T23:21:00,St. Mary's Bay-Centreville,,44.536239,-66.00172,2022-06-07,2022-08-22,aquaMeasure-670375,3.5,float,18.7,,
2022-07-25T23:31:00,St. Mary's Bay-Centreville,,44.536239,-66.00172,2022-06-07,2022-08-22,aquaMeasure-670375,3.5,float,18.73,,
2022-07-25T23:41:00,St. Mary's Bay-Centreville,,44.536239,-66.00172,2022-06-07,2022-08-22,aquaMeasure-670375,3.5,float,18.68,,
2022-07-25T23:51:00,St. Mary's Bay-Centreville,,44.536239,-66.00172,2022-06-07,2022-08-22,aquaMeasure-670375,3.5,float,18.68,,
